Location: Monteux
(44.0348°N, 4.9972°E)
Time: 18:21:36
(UTC+00:00)

Cosmos 2263 - Pass Details

Date: 30 November 2020
Orbit: 833 x 864 km, 70.9° (Epoch: 23 January)

Event Time Altitude Azimuth Distance (km) Brightness Sun altitude
Rises 17:25:41 0° 339° (NNW) 3,392 7.4 -14.4°
Reaches altitude 10° 17:28:15 10° 345° (NNW) 2,453 6.6 -14.8°
Maximum altitude 17:33:37 45° 58° (ENE) 1,131 4.4 -15.8°
Drops below altitude 10° 17:38:58 10° 130° (SE) 2,439 6.3 -16.7°
Enters shadow 17:40:21 - 135° (SE) 2,942 6.7 -16.9°
